STARLINK-11182, 60399

Orbit data source: Space-Track

STARLINK-11182, 60399 is a payload satellite owned by SpaceX/Seattle (US) in LEO that was launched on Sat, 10 Aug 2024 UTC via an FALCON 9 launch vehicle from the Air Force Eastern Test Range (AFETR). Payloads include a variety of satellites, spacecraft, and rockets equipped with specific instruments for various scientific and technological missions. These include communications satellites like Starlink; space stations such as the ISS; scientific satellites like the Hubble; Earth observation satellites from companies like Planet Labs, Umbra, and HawkEye 360; GPS; miniature CubeSats for education and research; and military/defense satellites.

Loading next visibility...
STARLINK-11182 details
Identifier
60399, 2024-141B
Orbit
LEO
Last TLE update9 hours ago
Origin
Flag of USSpaceX/Seattle (US)
ManufacturerSpaceX/Seattle
MissionOperational spacecraft
Bus & MotorSTARLINK V2M, Unknown motor
Mass730 kg wet, ~700 kg dry
Launch date (UTC)
2024-08-10 (5 months ago)
Launch vehicle
FALCON 9
Launch site
Air Force Eastern Test Range (AFETR)
Object type
Payload
Rocket body
Debris
Shape & HBRUnknown
Radar Cross SectionLarge (>1 m²)

Expand to show TLE details & history

TLE from 9 hours ago
0 STARLINK-11182
1 60399U 24141B   25014.92783825 -.00000593  00000-0 -28163-7 0  9991
2 60399  53.1597 350.4587 0001791 102.8570 257.2648 15.69707058 25977
Epoch: 2025-01-14T22:16Z
Definitive object data (Epoch: 2025-01-14T22:16:05.224Z)
Latitude-0.00004°
Longitude-98.1906°
Altitude360.916 km
Speed7.694 km/s
True Right ascension23h 21m 50s
True Declination0° 00' 00"
Sunlit
Object was in daylight at TLE epoch
Visualization TLE readout
Latitude-19.63673°
Longitude95.47689°
Altitude365.405 km
Speed7.69 km/s
Apparent Right ascension15h 11m 20s
Apparent Declination-43° 03' 54"
Sunlit
Object is in daylight
Visualization observer readout
Local Sidereal Time07:26:00
Azimuth115.746° SE
Elevation-43.37°
Doppler factor1
Orbital elements
Apogee altitude361.203 km
Perigee altitude358.789 km
Semi-major axis6,738.133 km
Eccentricity0.0001791
Inclination53.1597°
RAAN350.4587°
Arg. of periapsis102.857°
True anomaly257.24478°
Mean anomaly257.2648°
Eccentric anomaly257.25479°
Mean motion3.92404 °/min
BSTAR-2.8163e-8
Orbital period91.74 mins
Loading maneuver chart data...
Loading historical data...
Loading historical data...
Loading historical data...
Loading historical data...
Loading historical data...
Loading historical data...
Loading historical data...

STARLINK-11182 Visibility forecast

Observer location: undefined°, undefined

Span
Click to sort rows by Start time (UTC) header in descending order
Start Az.
Max El. time (UTC)
Max El. Az.
Max El.
End time (UTC)
End Az.
5 mins2025-01-15 07:55:34.470Z310.477° NW2025-01-15 07:58:34.470Z119.622° SE44.345°2025-01-15 08:00:34.470Z129.81° SE
4 mins2025-01-16 00:25:34.470Z199.631° SSW2025-01-16 00:27:34.470Z119.006° SE33.62°2025-01-16 00:29:34.470Z66.09° ENE
|